User: anonymous   Login
Location: Stigler
(35.2540°N, 95.1230°W)
Time: 00:35:49
(UTC-05:00)
Language:

Cosmos 1805 - Orbit

View from above orbital plane
View from above orbital plane
View from above satellite
View from above satellite

Ground track
Ground track

The orbit data is extracted from the following two-line orbital elements,

1 17191U 86097A   14297.84618802  .00007525  00000-0  48567-3 0   217
2 17191 082.5018 259.0696 0009239 133.7176 226.4819 15.08100945517764
Epoch (UTC): 24 October 2014 20:18:30
Eccentricity: 0.0009239
inclination: 82.5018°
perigee height: 535 km
apogee height: 548 km
right ascension of ascending node: 259.0696°
argument of perigee: 133.7176°
revolutions per day: 15.08100945
mean anomaly at epoch: 226.4819°
orbit number at epoch: 51776

The dashed part of the orbit path shows where the satellite is in the earth's shadow,  

DLR